Hourly Data Report for January 22, 2017

All times are specified in Local Standard Time (LST). Add 1 hour to adjust for Daylight Saving Time where and when it is observed.

GRAND ETANG
NOVA SCOTIA

46°33'00.000" N
61°03'00.000" W
12.80 m
8201969
WZQ

Related Data

No related data is available for this station

Download Data

Hourly Data (January 2017)
Hourly Data Report for January 22, 2017
Temp Definition
°C
Dew Point Temp Definition
°C
Rel Hum Definition
%
Wind Dir Definition
10's deg

Wind Spd Definition
km/h
Visibility Definition
km
Stn Press Definition
kPa
Hmdx Definition


Wind Chill Definition


Weather Definition


TIME
00:00 -1.4 -2.1 95 17 8   100.14   -4 LegendNANA
01:00 -1.2 -1.7 96 18 13   100.07   -5 LegendNANA
02:00 -0.6 -1.1 97 28 16   100.09   -5 LegendNANA
03:00 -0.6 -1.1 97 29 9   100.14   -4 LegendNANA
04:00 -0.8 -1.2 97 31 28   100.13   -7 LegendNANA
05:00 -0.7 -1.3 96 34 16   100.16   -5 LegendNANA
06:00 -0.7 -1.4 95 34 17   100.18   -6 LegendNANA
07:00 -0.7 -1.6 94 34 19   100.29   -6 LegendNANA
08:00 -0.7 -2.0 91 32 24   100.40   -7 LegendNANA
09:00 -0.7 -1.7 93 33 23   100.47   -7 LegendNANA
10:00 -0.6 -1.8 92 33 26   100.50   -7 LegendNANA
11:00 -0.4 -2.0 89 34 25   100.55   -6 LegendNANA
12:00 -0.3 -1.7 90 34 28   100.57   -7 LegendNANA
13:00 -0.5 -1.4 93 34 24   100.57   -6 LegendNANA
14:00 -0.1 -1.9 88 1 40   100.61   -8 LegendNANA
15:00 -0.7 -3.0 84 1 34   100.70   -8 LegendNANA
16:00 -0.8 -3.0 85 1 32   100.80   -8 LegendNANA
17:00 -0.9 -3.8 81 36 26   100.92   -7 LegendNANA
18:00 -0.8 -2.5 88 35 26   101.05   -7 LegendNANA
19:00 -1.4 -2.5 93 5 10   101.12   -5 LegendNANA
20:00 -1.4 -2.5 92 5 9   101.13   -5 LegendNANA
21:00 -0.9 -1.6 95 2 27   101.19   -7 LegendNANA
22:00 -0.8 -2.6 87 1 43   101.27   -9 LegendNANA
23:00 -1.1 -3.9 81 1 37   101.39   -9 LegendNANA

Notes on Data Quality.

Legend

  • E = Estimated
  • M = Missing
  • NA = Not Available
  • ‡ = Partner data that is not subject to review by the National Climate Archives
Date modified: